RH
21 18 73 98 99 95 97 91 88 92 87 89 88 85 92 90 78 56 67 72 74 97 92 80 63 72 78 78 82 79 94 89 71 65 61 46 50 31 26 28 35 43 54 56 74
12 31 50 63 77 88 92 93 93 90 90 88 87 88 91 90 75 65 92 78 84 74 62 70 68 58 71 71 74 87 93 83 56 51 57 53 64 37 35 29 62 69 46 71 80
13 13 30 73 81 69 71 83 82 86 91 89 88 88 89 87 81 87 86 73 79 87 75 67 87 70 68 71 71 80 88 64 54 50 58 52 77 78 54 39 40 94 91 78 76
14 13 21 54 59 38 16 16 28 76 92 91 91 98 94 81 87 59 62 67 57 52 63 67 69 72 69 76 59 83 68 66 67 66 67 75 79 80 74 50 33 47 57 65 73
12 15 26 15 10 26 18 14 19 52 92 92 92 94 83 84 71 53 55 52 52 56 62 76 63 59 71 63 63 73 60 58 62 69 60 77 78 83 76 60 53 50 47 50 72
10 11 12 9 10 12 14 14 21 30 47 46 91 65 87 95 55 54 50 55 55 60 62 74 70 67 66 68 66 53 50 46 46 50 59 62 74 85 72 68 61 49 46 42 74
8 9 9 8 9 11 12 14 24 30 32 51 73 74 79 69 48 42 47 46 54 60 61 64 69 74 73 68 69 60 64 56 48 50 62 63 73 78 71 85 81 71 44 46 54
7 8 9 10 12 13 13 14 20 24 37 53 71 82 71 48 45 44 44 41 50 55 64 63 71 84 79 73 64 68 64 80 51 48 48 80 84 57 53 82 83 82 57 52 70
7 7 7 10 12 16 16 16 17 27 39 49 66 66 64 38 43 38 42 46 46 49 59 80 67 83 83 88 80 67 93 76 60 47 54 73 81 59 60 73 91 86 81 59 98
7 7 7 8 12 29 27 22 20 33 32 48 59 55 46 38 38 44 43 45 47 48 71 88 83 85 84 98 86 82 77 83 63 50 50 90 84 64 68 80 76 89 81 89 100
8 7 7 8 13 36 51 50 45 40 44 60 58 56 40 37 37 37 39 45 50 49 67 95 98 92 90 85 77 88 82 90 73 46 50 58 80 68 66 76 86 93 83 72 100
8 8 7 8 16 40 73 76 86 85 86 46 42 45 36 37 44 36 42 48 53 70 68 90 97 69 66 71 81 84 77 77 70 56 46 48 77 65 74 75 67 82 83 71 100
8 8 7 11 18 37 79 76 63 89 88 59 37 36 33 36 40 42 46 52 62 69 70 76 60 44 55 81 90 89 79 72 75 65 55 45 66 77 77 75 71 78 78 69 95
7 8 10 12 26 51 70 67 70 92 94 36 29 31 32 35 40 51 54 60 73 76 69 68 52 53 50 54 74 94 73 74 77 85 96 52 91 74 75 75 76 86 83 76 94
7 8 11 17 24 73 71 57 78 93 83 28 31 30 34 36 35 52 52 68 83 82 67 70 62 65 70 43 59 75 82 86 84 87 99 78 85 64 64 76 73 71 88 69 78
7 9 15 12 15 41 46 78 88 88 71 48 34 40 44 37 36 38 71 74 92 81 74 78 60 64 60 48 39 62 81 90 98 100 98 88 81 74 81 66 68 64 79 80 82
8 12 19 15 30 31 54 75 88 84 45 53 52 46 46 48 44 39 88 93 95 90 78 70 66 57 48 57 46 92 91 97 97 97 96 81 94 66 54 56 58 64 65 82 73
8 18 34 23 38 48 62 81 85 66 56 42 47 48 52 49 53 45 66 96 93 92 99 100 85 79 49 57 61 87 83 95 90 97 85 90 98 78 47 48 53 59 67 72 92
10 29 57 21 35 48 69 91 82 54 45 52 58 63 65 54 61 66 66 96 100 94 94 96 81 67 53 44 47 66 92 80 96 90 85 88 68 47 38 46 57 60 64 68 99
15 44 55 16 38 45 81 85 65 43 42 54 79 64 76 66 67 74 83 85 92 68 76 91 95 89 93 59 45 54 68 86 94 91 95 82 67 48 47 43 54 55 56 68 98
18 44 55 15 28 44 94 82 49 38 35 52 65 74 64 73 62 73 78 61 61 61 55 90 98 77 78 72 65 86 95 92 83 95 97 90 71 35 42 40 42 45 50 64 98
26 81 44 18 54 93 82 54 36 37 34 44 44 54 61 52 73 77 82 60 51 42 81 91 99 97 79 87 74 70 78 82 91 99 97 97 72 37 42 38 40 50 47 70 89
58 76 42 30 88 96 73 61 53 48 44 50 49 44 45 52 74 59 59 39 47 49 82 95 92 96 81 94 73 78 71 84 92 90 97 97 60 41 54 45 40 41 66 82 93
59 85 46 60 68 83 90 81 71 46 48 48 47 45 58 60 49 65 60 51 47 49 64 75 98 97 96 91 98 100 94 71 95 97 97 93 61 63 62 65 58 50 47 85 93
47 84 73 97 77 77 88 83 71 64 50 48 58 55 64 79 79 82 59 61 52 53 70 89 100 92 81 74 76 83 91 92 97 91 96 65 79 74 73 73 68 62 47 54 92
53 57 67 79 63 82 83 78 73 63 56 62 64 58 58 84 77 83 78 78 78 68 80 91 97 93 91 89 80 96 89 91 93 84 64 69 79 68 70 69 69 70 68 60 58
74 83 83 79 75 83 90 81 68 61 52 47 56 72 73 65 59 63 65 68 68 77 97 98 97 96 97 87 98 92 96 96 94 93 87 91 78 67 75 71 74 74 73 73 60
Wind_Speed
26 25 23 23 23 23 24 24 23 23 23 24 24 24 24 25 27 29 28 18 11 12 13 19 19 19 15 12 18 12 7 11 19 21 4 10 6 11 2 6 6 10 16 20 24
26 26 24 24 25 25 25 25 24 24 24 24 24 24 23 23 25 17 14 4 7 11 16 13 22 21 10 10 9 9 9 9 5 12 5 11 5 14 2 3 7 23 24 28 26
26 26 26 23 24 25 26 25 25 25 24 23 23 21 20 19 16 2 10 9 5 12 12 14 9 15 13 16 8 6 11 12 17 16 10 16 7 12 4 2 9 19 36 35 31
26 26 26 26 26 27 28 26 26 25 24 23 21 19 15 7 3 4 14 9 16 24 14 6 10 10 6 11 19 10 7 15 16 12 7 3 3 9 6 5 4 18 27 29 33
26 26 27 28 28 28 28 27 26 27 25 21 18 11 6 4 9 14 9 14 19 17 4 5 4 8 8 6 12 14 8 16 14 27 20 9 5 8 13 13 10 14 24 26 32
26 27 28 29 29 28 29 27 28 24 22 15 13 4 3 4 7 10 10 9 14 12 7 3 4 8 9 5 6 5 14 17 21 18 13 16 9 7 16 15 12 17 35 28 28
27 28 29 29 29 29 28 27 24 19 13 13 8 0 9 11 9 6 12 13 10 9 8 5 5 6 7 6 12 9 8 10 10 15 8 21 10 13 16 9 18 21 37 30 29
28 29 30 30 30 31 28 27 20 10 13 4 6 2 6 4 9 12 15 11 7 11 8 5 2 6 2 11 8 4 1 7 1 7 15 17 18 18 29 10 20 17 29 30 31
28 29 30 29 30 29 28 25 18 6 16 1 3 3 6 10 15 20 11 11 5 8 6 1 4 1 3 1 4 4 4 8 7 9 4 10 3 7 25 18 20 12 11 30 30
28 29 30 30 29 25 27 27 11 7 16 3 3 5 4 17 19 14 12 9 10 3 4 4 2 1 1 4 8 5 9 5 8 5 10 9 8 4 17 24 28 13 12 2 27
30 31 32 29 27 22 27 30 27 5 16 5 10 8 14 13 15 18 13 13 5 4 3 5 2 4 10 10 5 8 9 7 5 9 8 13 14 10 15 20 22 13 6 7 22
30 32 32 29 22 19 20 16 15 11 10 3 5 9 8 14 11 17 6 7 7 5 4 2 6 11 9 11 7 10 13 12 10 13 9 10 13 14 13 17 29 20 6 13 16
30 32 30 25 17 17 18 16 21 5 4 11 3 2 12 15 11 7 7 8 4 5 6 4 8 8 4 9 5 9 13 13 11 12 6 3 7 11 6 5 16 22 22 14 9
30 30 27 23 13 20 5 26 16 2 3 6 3 4 16 26 2 6 9 5 5 4 7 6 5 5 7 4 8 4 5 9 14 8 3 1 3 8 11 11 13 19 25 23 20
30 28 22 23 21 16 21 23 6 1 5 10 7 11 28 9 12 7 16 3 3 5 3 5 7 6 4 5 10 5 5 3 4 4 4 2 2 6 13 13 13 13 24 28 30
30 26 16 22 25 26 22 6 2 4 3 7 10 12 13 12 9 12 10 9 4 5 3 14 11 4 5 7 4 4 1 4 2 2 4 4 6 4 10 20 13 13 19 26 27
28 24 13 28 29 26 16 5 4 6 8 9 9 14 10 10 9 11 4 5 3 6 9 8 2 1 7 3 1 5 4 0 2 3 2 3 3 10 4 14 15 18 24 28 25
26 20 12 28 24 18 16 5 9 4 5 7 8 12 7 16 7 13 7 3 6 4 2 4 7 6 3 5 5 5 4 3 5 4 3 6 3 6 9 11 18 23 26 29 29
23 14 11 23 20 16 7 6 5 4 8 7 10 6 6 10 6 8 6 2 6 5 4 5 5 3 9 5 5 4 3 2 3 3 3 4 3 8 2 3 9 15 22 30 36
19 7 9 25 20 10 6 3 3 6 7 5 5 4 5 9 8 6 4 2 3 6 2 3 7 3 6 3 6 1 5 2 2 2 2 2 3 2 2 7 10 14 21 26 36
13 4 14 22 13 11 3 2 3 11 14 3 3 4 5 5 3 5 5 5 6 8 8 3 4 6 2 2 6 4 2 1 3 3 2 2 1 2 3 5 5 10 23 28 37
9 4 20 17 10 4 3 7 8 7 13 5 5 5 5 6 4 3 3 4 16 20 4 3 3 5 6 7 7 5 5 3 3 1 0 2 3 5 5 6 8 8 26 34 42
5 4 15 18 4 4 8 6 7 7 6 5 4 4 4 5 5 4 6 11 20 13 1 6 3 5 4 2 4 4 2 4 3 2 2 2 1 7 8 9 19 18 12 30 37
4 3 7 13 8 2 3 5 7 14 5 12 4 6 9 5 0 9 9 8 25 15 10 6 3 4 3 5 1 5 3 2 4 1 3 0 1 12 12 10 12 23 21 17 28
6 2 4 3 6 4 3 3 5 8 3 10 5 10 6 4 7 3 7 11 11 4 7 3 4 2 10 17 15 11 4 5 5 1 2 4 5 10 10 10 13 25 24 18 15
5 4 4 2 6 4 5 4 5 5 3 5 7 10 4 4 6 13 10 1 7 5 6 3 4 5 5 10 4 3 6 6 7 6 12 9 9 6 10 21 25 23 26 24 15
6 5 1 2 4 4 3 4 5 10 7 8 5 5 6 7 20 28 25 22 16 8 3 3 2 4 5 5 2 6 9 5 9 13 4 5 4 7 12 14 21 20 28 25 15
Wind_Direction
351 350 349 346 338 334 333 327 325 321 319 322 323 317 316 311 306 308 305 309 273 287 291 285 260 249 245 258 230 224 228 227 224 230 220 298 204 252 173 143 94 120 137 167 166
348 349 343 340 338 337 334 331 328 324 321 320 319 316 313 312 313 321 358 301 241 287 296 274 262 245 254 226 219 207 224 228 230 236 211 254 311 205 247 105 71 121 150 161 161
349 345 344 340 339 338 336 330 326 323 321 318 315 313 315 318 317 197 20 6 305 329 315 286 256 216 246 236 222 199 238 204 259 259 251 267 309 333 130 251 166 152 149 159 163
347 345 344 342 340 339 339 335 328 324 320 318 315 315 312 327 303 296 330 317 313 322 320 343 249 242 244 231 234 243 233 244 264 274 236 286 304 304 287 209 291 185 167 167 167
347 346 345 343 342 340 339 335 330 324 318 317 317 318 335 290 275 4 355 320 316 322 306 333 281 272 257 269 259 240 241 252 243 256 249 216 242 198 267 253 332 219 195 188 176
347 349 349 347 344 344 339 337 333 330 328 340 320 341 296 264 340 330 343 345 342 314 342 213 353 324 293 258 281 310 227 254 264 270 255 253 233 171 249 276 292 247 209 204 182
352 353 351 347 346 343 339 340 332 329 345 347 339 216 291 264 323 348 352 339 308 325 295 272 260 345 348 303 327 291 278 298 273 256 235 244 268 216 240 300 289 321 196 195 190
357 353 351 348 345 342 341 342 331 326 348 11 10 293 265 349 329 353 326 315 323 339 284 275 210 214 297 310 323 332 237 238 214 254 243 175 243 237 226 218 258 297 204 189 188
357 354 350 347 343 342 342 347 331 315 351 176 306 236 277 354 338 323 328 318 327 319 305 247 214 264 182 84 333 247 260 221 271 231 195 176 240 211 209 184 242 280 302 191 180
358 356 352 348 344 344 342 355 359 330 349 0 336 244 272 329 331 345 359 339 305 312 27 108 36 296 224 173 207 210 223 253 220 230 219 176 209 203 180 178 245 250 284 285 182
358 354 354 351 345 349 346 0 17 357 348 299 286 273 298 328 346 350 344 347 8 264 254 159 201 216 223 218 235 300 297 302 302 249 221 215 201 206 178 177 196 233 290 288 195
358 354 352 352 349 356 351 14 8 321 319 33 313 296 333 312 316 347 349 11 334 306 313 166 234 239 230 217 207 232 257 269 283 270 247 233 206 198 177 194 198 215 299 280 200
354 353 352 358 354 2 335 358 338 340 286 299 273 319 349 320 303 351 22 351 315 322 318 236 254 299 285 269 201 243 223 248 264 327 284 265 236 188 203 149 174 188 223 249 276
352 353 352 3 356 352 342 332 340 10 357 321 335 349 334 331 51 31 3 352 345 327 323 270 288 274 261 186 200 252 225 244 251 271 237 95 264 204 188 194 181 171 191 230 226
352 352 356 2 358 346 330 325 342 47 57 323 3 343 338 348 1 6 3 58 323 306 317 268 317 359 351 217 173 200 89 48 298 212 274 222 102 272 186 206 195 192 186 213 205
350 349 357 1 1 345 337 352 31 42 299 357 331 339 341 350 14 16 37 31 289 301 242 261 255 283 224 324 264 133 68 54 63 191 250 192 150 272 196 204 198 193 177 190 184
349 350 5 4 351 342 339 346 38 82 331 344 328 329 332 353 359 1 37 20 39 8 348 316 279 249 197 288 132 92 109 153 207 167 164 246 97 249 311 200 198 187 180 185 169
351 349 7 4 349 350 350 50 63 301 6 314 320 322 25 14 343 346 10 16 44 38 352 8 332 8 342 201 175 164 165 168 174 167 152 120 229 257 230 226 217 195 172 173 177
354 357 24 355 350 347 1 46 185 356 345 319 325 13 341 4 337 8 354 18 47 26 41 329 282 256 286 205 158 243 186 135 84 288 85 207 286 304 281 172 179 180 174 181 180
356 15 25 354 352 4 60 98 22 6 333 358 11 14 336 336 16 21 349 5 357 43 168 270 289 19 334 264 216 230 178 71 8 81 164 274 172 165 237 237 180 190 183 180 180
358 37 3 356 2 49 102 247 350 354 11 331 301 308 348 344 306 313 272 316 44 330 319 204 253 295 303 249 170 102 225 356 122 132 126 117 217 0 320 341 286 198 182 170 176
10 47 3 3 44 23 19 319 350 345 356 342 338 11 12 353 313 305 302 259 27 360 340 322 266 278 251 301 298 154 160 144 118 226 65 62 302 328 4 342 25 70 178 167 171
43 35 25 38 66 339 334 353 342 15 337 16 306 13 6 21 345 291 328 312 357 344 344 330 313 315 349 147 351 56 184 149 74 21 83 298 218 359 17 27 35 38 116 161 158
33 31 32 55 69 110 22 334 339 350 346 343 302 22 6 329 79 293 292 310 333 328 25 4 267 248 264 288 211 289 328 188 158 142 133 250 48 11 12 23 26 36 53 155 151
46 66 40 343 354 47 74 333 358 353 352 330 343 9 352 307 314 248 333 329 308 350 13 92 278 240 267 272 261 248 198 165 154 351 140 132 61 23 13 15 17 47 55 67 146
74 21 30 310 328 49 358 303 319 341 279 306 330 316 300 235 235 294 316 16 250 317 352 338 280 318 294 358 163 182 175 118 64 82 96 89 76 27 23 31 27 36 43 42 47
69 45 45 297 346 69 253 255 296 337 297 298 321 318 289 264 293 284 274 263 249 276 306 276 281 341 275 342 304 55 343 107 86 46 353 67 16 42 36 31 15 16 46 34 21